This demonstration page uses our WeatherBlox Daily Observations layout. Learn more.

Left ArrowRight Arrow

Hourly Observations for April 29, 2020

Temp ( °F °C ) Dew Point ( °F °C ) Humidity (%) Winds ( mph kmh ) Pressure ( in mb ) Visibility ( mi km ) Precip ( " mm )
12:15 am 00:15 Clear 43 6 43 6 100 100 Calm 30.12 1020 2.5 4.02335 0 0
12:35 am 00:35 Mostly Cloudy 43 6 43 6 100 100 Calm 30.12 1020 1.25 2.011675 0 0
12:55 am 00:55 Clear 41 5 41 5 100 100 Calm 30.12 1020 3 4.82802 0 0
1:15 am 01:15 Cloudy 41 5 41 5 100 100 Calm 30.12 1020 0.25 0.402335 0 0
1:35 am 01:35 Cloudy 41 5 41 5 100 100 Calm 30.12 1020 0.25 0.402335 0 0
1:55 am 01:55 Partly Cloudy 41 5 41 5 100 100 E 3 6 30.11 1020 1.5 2.41401 0 0
2:15 am 02:15 Partly Cloudy 41 5 41 5 100 100 Calm 30.11 1020 2.5 4.02335 0 0
2:35 am 02:35 Mostly Cloudy 41 5 41 5 100 100 Calm 30.1 1019 5 8.0467 0 0
2:55 am 02:55 Partly Cloudy 43 6 43 6 100 100 Calm 30.1 1019 4 6.43736 0 0
3:15 am 03:15 Mostly Cloudy 41 5 41 5 100 100 Calm 30.09 1019 3 4.82802 0 0
3:35 am 03:35 Mostly Cloudy 41 5 41 5 100 100 Calm 30.09 1019 3 4.82802 0 0
3:55 am 03:55 Partly Cloudy 41 5 41 5 100 100 Calm 30.08 1019 3 4.82802 0 0
4:15 am 04:15 Clear 41 5 41 5 100 100 Calm 30.08 1019 3 4.82802 0 0
4:35 am 04:35 Clear 41 5 41 5 100 100 Calm 30.08 1019 3 4.82802 0 0
4:55 am 04:55 Clear 41 5 41 5 100 100 Calm 30.07 1018 3 4.82802 0 0
5:15 am 05:15 Clear 41 5 41 5 100 100 Calm 30.06 1018 4 6.43736 0 0
5:35 am 05:35 Clear 37 3 37 3 100 100 N 3 6 30.08 1019 3 4.82802 0 0
5:55 am 05:55 Clear 41 5 41 5 100 100 Calm 30.06 1018 3 4.82802 0 0
6:15 am 06:15 Mostly Cloudy 37 3 37 3 100 100 Calm 30.06 1018 0.5 0.80467 0 0
6:35 am 06:35 Sunny 39 4 39 4 100 100 Calm 30.05 1017 3 4.82802 0 0
6:55 am 06:55 Sunny 37 3 37 3 100 100 Calm 30.08 1019 4 6.43736 0 0
7:15 am 07:15 Sunny 39 4 39 4 100 100 Calm 30.09 1019 7 11.26538 0 0
7:35 am 07:35 Partly Cloudy 41 5 41 5 100 100 Calm 30.09 1019 7 11.26538 0 0
7:55 am 07:55 Cloudy 41 5 41 5 100 100 ENE 3 6 30.08 1019 10 16.0934 0 0
8:15 am 08:15 Cloudy 43 6 43 6 100 100 Calm 30.09 1019 10 16.0934 0 0
8:35 am 08:35 Cloudy 43 6 43 6 100 100 ENE 5 7 30.08 1019 10 16.0934 0 0
8:55 am 08:55 Cloudy 45 7 45 7 100 100 Calm 30.08 1019 10 16.0934 0 0
9:15 am 09:15 Cloudy 45 7 43 6 93 93 ENE 3 6 30.07 1018 10 16.0934 0 0
9:35 am 09:35 Cloudy 48 9 45 7 87 87 NE 5 7 30.07 1018 10 16.0934 0 0
9:55 am 09:55 Cloudy 50 10 46 8 88 88 ENE 5 7 30.06 1018 10 16.0934 0 0
10:15 am 10:15 Partly Cloudy 50 10 46 8 88 88 Calm 30.06 1018 10 16.0934 0 0
10:35 am 10:35 Sunny 52 11 46 8 82 82 Calm 30.05 1018 10 16.0934 0 0
10:55 am 10:55 Sunny 52 11 48 9 88 88 Calm 30.05 1018 10 16.0934 0 0
11:15 am 11:15 Sunny 54 12 48 9 82 82 SE 3 6 30.05 1018 10 16.0934 0 0
11:35 am 11:35 Sunny 55 13 50 10 82 82 E 3 6 30.05 1018 10 16.0934 0 0
11:55 am 11:55 Partly Cloudy 55 13 50 10 82 82 ENE 7 11 30.04 1017 10 16.0934 0 0
12:15 pm 12:15 Partly Cloudy 57 14 50 10 77 77 E 6 9 30.03 1017 10 16.0934 0 0
12:35 pm 12:35 Partly Cloudy 59 15 50 10 72 72 SE 3 6 30.03 1017 10 16.0934 0 0
1:35 pm 13:35 Sunny 63 17 52 11 68 68 SSE 7 11 30.02 1016 10 16.0934 0 0
1:55 pm 13:55 Sunny 64 18 52 11 64 64 SSE 9 15 30 1016 10 16.0934 0 0
2:15 pm 14:15 Sunny 64 18 52 11 64 64 SE 8 13 30 1016 10 16.0934 0 0
2:35 pm 14:35 Sunny 66 19 54 12 64 64 SE 12 19 29.99 1016 10 16.0934 0 0
2:55 pm 14:55 Sunny 68 20 54 12 60 60 S 7 11 29.98 1015 10 16.0934 0 0
3:15 pm 15:15 Sunny 70 21 54 12 57 57 SE 12 19 29.97 1015 10 16.0934 0 0
3:35 pm 15:35 Partly Cloudy 72 22 54 12 53 53 SE 10 17 29.96 1015 10 16.0934 0 0
3:55 pm 15:55 Partly Cloudy 72 22 54 12 53 53 SSE 16 26 29.94 1014 10 16.0934 0 0
4:15 pm 16:15 Mostly Cloudy 72 22 54 12 53 53 SSE 13 20 29.94 1014 10 16.0934 0 0
4:35 pm 16:35 Mostly Cloudy 72 22 54 12 53 53 SSE 18 30 29.94 1014 10 16.0934 0 0
4:55 pm 16:55 Mostly Cloudy 72 22 54 12 53 53 SE 13 20 29.94 1014 10 16.0934 0 0
5:15 pm 17:15 Partly Cloudy 72 22 54 12 53 53 SSE 17 28 29.94 1014 10 16.0934 0 0
5:35 pm 17:35 Partly Cloudy 72 22 54 12 53 53 SE 18 30 29.93 1013 10 16.0934 0 0
5:55 pm 17:55 Mostly Cloudy 72 22 54 12 53 53 SE 14 22 29.93 1013 10 16.0934 0 0
6:15 pm 18:15 Cloudy 72 22 55 13 57 57 SE 16 26 29.93 1013 10 16.0934 0 0
6:35 pm 18:35 Cloudy 72 22 55 13 57 57 SE 12 19 29.93 1013 10 16.0934 0 0
6:55 pm 18:55 Cloudy 70 21 55 13 60 60 SE 12 19 29.92 1013 10 16.0934 0 0
7:15 pm 19:15 Mostly Cloudy 70 21 55 13 60 60 ESE 12 19 29.91 1013 10 16.0934 0 0
7:35 pm 19:35 Cloudy 70 21 55 13 60 60 SE 9 15 29.9 1013 10 16.0934 0 0
7:55 pm 19:55 Cloudy 70 21 55 13 60 60 SE 13 20 29.9 1013 10 16.0934 0 0
8:15 pm 20:15 Mostly Cloudy 68 20 55 13 64 64 ESE 12 19 29.9 1013 10 16.0934 0 0
8:35 pm 20:35 Partly Cloudy 68 20 55 13 64 64 SE 12 19 29.89 1012 10 16.0934 0 0
8:55 pm 20:55 Clear 68 20 55 13 64 64 SE 13 20 29.89 1012 10 16.0934 0 0
9:15 pm 21:15 Clear 68 20 55 13 64 64 SE 9 15 29.89 1012 10 16.0934 0 0
9:35 pm 21:35 Clear 68 20 57 14 69 69 SE 14 22 29.89 1012 10 16.0934 0 0
9:55 pm 21:55 Clear 66 19 57 14 73 73 SE 15 24 29.89 1012 10 16.0934 0 0
10:15 pm 22:15 Mostly Cloudy 66 19 57 14 73 73 ESE 15 24 29.89 1012 10 16.0934 0 0
10:35 pm 22:35 Cloudy 64 18 57 14 78 78 ESE 10 17 29.9 1013 10 16.0934 0 0
10:55 pm 22:55 Cloudy 64 18 57 14 78 78 SE 8 13 29.9 1013 10 16.0934 0 0
11:15 pm 23:15 Cloudy 66 19 57 14 73 73 SSE 10 17 29.9 1013 10 16.0934 0 0
11:35 pm 23:35 Cloudy 66 19 57 14 73 73 SSE 14 22 29.89 1012 10 16.0934 0 0
11:55 pm 23:55 Cloudy 64 18 59 15 83 83 SE 14 22 29.88 1012 10 16.0934 0 0

Powered by AerisWeather